Regional Weather Roundup
Issued by NWS Charleston, SC

Current Version | Previous Version | Graphics & Text | Print | Product List | Glossary On
Versions: 1 2 3 4 5 6 7 8 9 10 11 12 13 14 15 16 17 18 19 20 21 22 23 24 25 26 27 28 29 30 31 32 33 34 35 36 37 38 39 40 41 42 43 44 45 46 47 48 49 50
029 ASUS42 KCHS 211412 RWRCHS REGIONAL WEATHER ROUNDUP NATIONAL WEATHER SERVICE CHARLESTON SC 1000 AM EDT THU MAY 21 2015 NOTE: "FAIR" INDICATES FEW OR NO CLOUDS BELOW 12,000 FEET WITH NO SIGNIFICANT WEATHER AND/OR OBSTRUCTIONS TO VISIBILITY. NOT ALL STATIONS ARE QUALITY CONTROLLED BY THE NATIONAL WEATHER SERVICE. USE DATA WITH CAUTION...ESPECIALLY DEWPOINT OBSERVATIONS. SCZ027-030-031-034>040-042>050-211500- ...SOUTHEAST SOUTH CAROLINA... CITY SKY/WX TMP DP RH WIND PRES REMARKS N CHARLESTON MOSUNNY 82 71 69 SW9 29.87R WATERFRONT PAR N/A 80 71 74 W6 29.84S MOUNT PLEASANT FAIR 82 72 69 SW7 29.86S JOHNS ISLAND SUNNY 82 72 69 SW9 29.87S PINOPOLIS NOT AVBL MONCKS CORNER FAIR 82 72 69 SW7 29.86S SUMMERVILLE FAIR 81 72 74 SW6 29.87S BEAUFORT MCAS MOSUNNY 81 68 64 W12G21 29.89S BEAUFORT ARPT FAIR 79 70 73 W9 29.89S HILTON HEAD IS SUNNY 77 68 73 SW9G16 29.91S WALTERBORO SUNNY 79 68 69 W12 29.88S ALLENDALE FAIR 79 68 69 W8G14 29.89S ...SOUTHERN MIDLANDS AND PEE DEE... CITY SKY/WX TMP DP RH WIND PRES REMARKS GEORGETOWN NOT AVBL KINGSTREE NOT AVBL ORANGEBURG SUNNY 79 68 69 W9 29.86F BARNWELL FAIR 81 66 61 SW13G18 29.89S AIKEN FAIR 77 63 61 W14 29.92S MANNING FAIR 79 55 44 SW7 29.85S COLUMBIA MOSUNNY 81 65 58 SW13 29.85S SUMTER SUNNY 80 69 70 W15 29.83S FLORENCE MOSUNNY 78 71 79 SE3 29.84S MYRTLE BEACH PTSUNNY 79 70 73 S12 29.88S N MYRTLE BEACH PTSUNNY 77 71 82 S7 29.87R $$ GAZ063-065-086>088-099>101-113>116-118-119-134>141-150-211500- ...SOUTHEAST GEORGIA... CITY SKY/WX TMP DP RH WIND PRES REMARKS SAVANNAH ARPT PTSUNNY 79 65 62 W16 29.92R HUNTER AAF MOSUNNY 81 69 66 W13 29.90R FORT STEWART MOSUNNY 82 65 56 W12G17 29.91S STATESBORO MOSUNNY 79 69 73 NW13 29.93R SYLVANIA SUNNY 81 70 68 NW10 29.92S CLAXTON FAIR 79 68 69 W14 29.94S ...CSRA...CENTRAL AND FAR SOUTHEAST GEORGIA... CITY SKY/WX TMP DP RH WIND PRES REMARKS THOMSON SUNNY 79 67 67 W16G25 29.96S AUGUSTA-BUSH SUNNY 79 65 62 W12 29.89S AUGUSTA-DANIEL SUNNY 79 64 60 W9G17 29.91S SWAINSBORO FAIR 79 68 69 W10G18 29.95S VIDALIA SUNNY 79 64 61 NW9G16 29.96S EASTMAN FAIR 77 68 73 NW8 29.99S HAZLEHURST FAIR 80 67 65 NW6 29.96S ALMA SUNNY 80 65 59 W14 29.97R WAYCROSS SUNNY 82 69 65 NW8 29.97S JESUP FAIR 82 68 61 NW13 29.95S BAXLEY FAIR 81 66 61 NW8 29.96S BRUNSWICK MOSUNNY 81 66 61 W8 29.95S SAINT SIMONS NOT AVBL $$ SCZ027-028-034-036>038-045-046-048>050-GAZ119-141-211500- ...LAKE AND SUPPLEMENTAL COASTAL OBSERVATIONS... STATION/POSITION TIME TEMP WIND PRES WAVE SWELL AIR SEA DIR/SP/G HT/PER HT/PER/DIR (UTC) (F) (DEG/KT/KT) (MB) (FT/S) (FT/S/D) UPR LAKE MARION NOT AVBL WINYAH BAY NOT AVBL LAKE MURRAY 1300 75 250/ 10/ 14 1010.2S ACE BASIN NERRS NOT AVBL FORT PULASKI 1300 76 79 270/ 13/ 17 1013.3R SAPELO ISLAND 1300 78 290/ 9 1014.0R $$ ANZ835-935-AMZ111-154-330-350-352-354-370-450-454-472-211500- ...C-MAN AND BUOY OBSERVATIONS... STATION/POSITION TIME TEMP WIND PRES WAVE SWELL AIR SEA DIR/SP/G HT/PER HT/PER/DIR (UTC) (F) (DEG/KT/KT) (MB) (FT/S) (FT/S/D) BUOY 41004 1350 76 76 230/ 14/ 16 1010.9R 4/ 5 2/ 9 BUOY 41008 1350 76 77 290/ 14/ 16 1013.4R 3/ 4 FOLLY BEACH CMAN 1300 80 240/ 8/ 11 1011.4F CAPERS NEARSHORE 1308 77 240/ 14/ 17 1011.2S FRIPP NEARSHORE 1300 78 270/ 10/ 12 1011.8R STATION/POSITION TIME TEMP WIND PRES WAVE SWELL AIR SEA DIR/SP/G HT/PER HT/PER/DIR (UTC) (F) (DEG/KT/KT) (MB) (FT/S) (FT/S/D) 5E ST. MARYS GA 1321 76 N/A 2/ 3 FRYING PAN BUOY 1350 77 76 210/ 6/ 8 1012.3F 2/ 5 2/160/ 5 BUOY 41025 1350 74 77 120/ 16/ 19 1012.3F 4/ 9 2/ 50/ 9 CAPE LOOKOUT NC 1300 73 130/ 14/ 15 1011.8S BUOY 41002 1350 75 75 220/ 10/ 12 1014.5F 3/ 9 2/ 50/ 9 BUOY 41010 1320 80 78 220/ 10/ 12 1015.3R ST AUGUSTINE FL 1400 79 71 330/ 6/ 7 1016.0R $$

USA.gov is the U.S. government's official web portal to all federal, state and local government web resources and services.